TimeEST,TemperatureF,Dew PointF,Humidity,Sea Level PressureIn,VisibilityMPH,Wind Direction,Wind SpeedMPH,Gust SpeedMPH,PrecipitationIn,Events,Conditions,WindDirDegrees,DateUTC
12:17 AM,51.8,51.8,100,30.24,7.0,Calm,Calm,-,N/A,,Scattered Clouds,0,2012-12-04 05:17:00
12:39 AM,51.8,51.8,100,30.24,5.0,Calm,Calm,-,N/A,,Clear,0,2012-12-04 05:39:00
1:00 AM,51.8,51.8,100,30.24,5.0,Calm,Calm,-,N/A,,Clear,0,2012-12-04 06:00:00
1:21 AM,50.0,50.0,100,30.24,0.5,Calm,Calm,-,N/A,,Unknown,0,2012-12-04 06:21:00
1:43 AM,50.0,50.0,100,30.25,0.8,Calm,Calm,-,N/A,,Unknown,0,2012-12-04 06:43:00
2:04 AM,50.0,50.0,100,30.25,1.0,Calm,Calm,-,N/A,,Unknown,0,2012-12-04 07:04:00
2:25 AM,50.0,50.0,100,30.25,0.2,Calm,Calm,-,N/A,,Mostly Cloudy,0,2012-12-04 07:25:00
2:46 AM,46.4,46.4,100,30.25,0.2,Calm,Calm,-,N/A,,Overcast,0,2012-12-04 07:46:00
3:08 AM,46.4,46.4,100,30.25,0.2,Calm,Calm,-,N/A,,Overcast,0,2012-12-04 08:08:00
3:29 AM,46.4,46.4,100,30.25,0.2,Calm,Calm,-,N/A,,Overcast,0,2012-12-04 08:29:00
3:50 AM,46.4,46.4,100,30.25,0.2,Calm,Calm,-,N/A,,Overcast,0,2012-12-04 08:50:00
4:12 AM,44.6,44.6,100,30.25,0.2,Calm,Calm,-,N/A,,Overcast,0,2012-12-04 09:12:00
4:33 AM,44.6,44.6,100,30.25,0.2,Calm,Calm,-,N/A,,Overcast,0,2012-12-04 09:33:00
4:54 AM,44.6,44.6,100,30.25,0.2,Calm,Calm,-,N/A,,Overcast,0,2012-12-04 09:54:00
5:15 AM,44.6,44.6,100,30.24,0.2,Calm,Calm,-,N/A,,Overcast,0,2012-12-04 10:15:00
5:37 AM,44.6,44.6,100,30.24,0.2,Calm,Calm,-,N/A,,Overcast,0,2012-12-04 10:37:00
5:58 AM,44.6,44.6,100,30.25,0.2,Calm,Calm,-,N/A,,Overcast,0,2012-12-04 10:58:00
6:19 AM,44.6,44.6,100,30.25,0.2,Calm,Calm,-,N/A,,Overcast,0,2012-12-04 11:19:00
6:41 AM,44.6,44.6,100,30.25,0.2,Calm,Calm,-,N/A,,Overcast,0,2012-12-04 11:41:00
7:02 AM,44.6,44.6,100,30.25,0.2,Calm,Calm,-,N/A,,Overcast,0,2012-12-04 12:02:00
7:23 AM,44.6,44.6,100,30.25,0.2,Calm,Calm,-,N/A,,Overcast,0,2012-12-04 12:23:00
8:06 AM,44.6,44.6,100,30.26,0.2,Calm,Calm,-,N/A,,Overcast,0,2012-12-04 13:06:00
8:27 AM,44.6,44.6,100,30.26,0.2,Calm,Calm,-,N/A,,Overcast,0,2012-12-04 13:27:00
8:48 AM,44.6,44.6,100,30.26,0.2,Calm,Calm,-,N/A,,Overcast,0,2012-12-04 13:48:00
9:09 AM,46.4,46.4,100,30.26,0.2,Calm,Calm,-,N/A,,Overcast,0,2012-12-04 14:09:00
9:31 AM,46.4,46.4,100,30.26,0.2,Calm,Calm,-,N/A,,Overcast,0,2012-12-04 14:31:00
9:52 AM,46.4,46.4,100,30.26,0.2,Calm,Calm,-,N/A,,Overcast,0,2012-12-04 14:52:00
10:13 AM,46.4,46.4,100,30.25,0.2,Calm,Calm,-,N/A,,Overcast,0,2012-12-04 15:13:00
10:34 AM,48.2,48.2,100,30.25,0.2,Calm,Calm,-,N/A,,Overcast,0,2012-12-04 15:34:00
10:56 AM,50.0,50.0,100,30.23,0.5,Calm,Calm,-,N/A,,Overcast,0,2012-12-04 15:56:00
11:17 AM,51.8,51.8,100,30.22,4.0,Calm,Calm,-,N/A,,Mostly Cloudy,0,2012-12-04 16:17:00
11:38 AM,53.6,53.6,100,30.19,10.0,Calm,Calm,-,N/A,,Clear,0,2012-12-04 16:38:00
11:59 AM,59.0,59.0,100,30.18,10.0,Calm,Calm,-,N/A,,Clear,0,2012-12-04 16:59:00
12:20 PM,60.8,60.8,100,30.16,10.0,Calm,Calm,-,N/A,,Clear,0,2012-12-04 17:20:00
12:42 PM,60.8,60.8,100,30.15,10.0,Calm,Calm,-,N/A,,Clear,0,2012-12-04 17:42:00
1:03 PM,64.4,55.4,73,30.13,10.0,Calm,Calm,-,N/A,,Clear,0,2012-12-04 18:03:00
1:24 PM,66.2,55.4,68,30.11,10.0,Calm,Calm,-,N/A,,Clear,0,2012-12-04 18:24:00
1:45 PM,69.8,51.8,53,30.10,10.0,South,6.9,-,N/A,,Clear,190,2012-12-04 18:45:00
2:49 PM,69.8,50.0,49,30.09,10.0,South,9.2,-,N/A,,Clear,190,2012-12-04 19:49:00
3:10 PM,69.8,50.0,49,30.09,10.0,South,6.9,-,N/A,,Clear,170,2012-12-04 20:10:00
3:32 PM,68.0,50.0,52,30.09,10.0,South,5.8,-,N/A,,Clear,180,2012-12-04 20:32:00
3:53 PM,68.0,50.0,52,30.09,10.0,South,3.5,-,N/A,,Scattered Clouds,180,2012-12-04 20:53:00
4:14 PM,68.0,50.0,52,30.09,10.0,South,3.5,-,N/A,,Scattered Clouds,180,2012-12-04 21:14:00
4:35 PM,66.2,50.0,56,30.09,10.0,South,3.5,-,N/A,,Mostly Cloudy,190,2012-12-04 21:35:00
4:57 PM,66.2,50.0,56,30.09,10.0,South,3.5,-,N/A,,Overcast,180,2012-12-04 21:57:00
5:18 PM,68.0,50.0,52,30.09,10.0,WSW,4.6,-,N/A,,Overcast,240,2012-12-04 22:18:00
5:39 PM,68.0,50.0,52,30.08,10.0,WSW,5.8,-,N/A,,Overcast,250,2012-12-04 22:39:00
6:00 PM,68.0,51.8,56,30.08,10.0,SW,10.4,18.4,N/A,,Mostly Cloudy,230,2012-12-04 23:00:00
6:22 PM,66.2,53.6,64,30.09,10.0,WSW,6.9,-,N/A,,Mostly Cloudy,240,2012-12-04 23:22:00
6:43 PM,64.4,53.6,68,30.09,10.0,SW,15.0,19.6,N/A,,Mostly Cloudy,220,2012-12-04 23:43:00
7:04 PM,64.4,53.6,68,30.09,10.0,SSW,6.9,21.9,N/A,,Mostly Cloudy,200,2012-12-05 00:04:00
7:25 PM,64.4,53.6,68,30.08,10.0,SSW,5.8,-,N/A,,Overcast,200,2012-12-05 00:25:00
7:46 PM,64.4,53.6,68,30.07,10.0,South,6.9,-,N/A,,Mostly Cloudy,170,2012-12-05 00:46:00
8:08 PM,62.6,53.6,72,30.07,10.0,South,6.9,-,N/A,,Scattered Clouds,180,2012-12-05 01:08:00
8:29 PM,62.6,55.4,77,30.06,10.0,SSW,9.2,-,N/A,,Clear,210,2012-12-05 01:29:00
8:50 PM,62.6,53.6,72,30.05,10.0,South,8.1,-,N/A,,Scattered Clouds,190,2012-12-05 01:50:00
9:12 PM,62.6,55.4,77,30.05,10.0,SSE,4.6,-,N/A,,Mostly Cloudy,150,2012-12-05 02:12:00
9:33 PM,60.8,55.4,82,30.04,10.0,South,3.5,-,N/A,,Mostly Cloudy,170,2012-12-05 02:33:00
9:54 PM,60.8,55.4,82,30.04,10.0,SSE,4.6,-,N/A,,Mostly Cloudy,150,2012-12-05 02:54:00
10:15 PM,60.8,55.4,82,30.04,10.0,SSE,3.5,-,N/A,,Scattered Clouds,160,2012-12-05 03:15:00
11:19 PM,62.6,53.6,72,30.03,10.0,SW,3.5,-,N/A,,Mostly Cloudy,220,2012-12-05 04:19:00
11:41 PM,62.6,53.6,72,30.03,10.0,SW,4.6,-,N/A,,Scattered Clouds,220,2012-12-05 04:41:00